WA2GUG Weather Reports


Display with metric or nautical units.
time (UTC)temp
F
wind
direction
speed
MPH
gust
MPH
rain 1hr
in
rain 24hr
in
rain mn
in
humidity
%
barometer
mb
20200929044629 66 1.0 2.0 0.00 0.00 0.00 1010.0
20200929044134 66 112 1.0 2.0 0.00 0.00 0.00 99 1010.0
20200929043629 66 213 1.0 2.0 0.00 0.00 0.00 99 980.0
20200929043129 66 1.0 2.0 0.00 0.00 0.00 99 1010.0
20200929042630 66 45 1.0 4.0 0.00 0.00 0.00 99 1011.0
20200929042131 66 225 1.0 4.0 0.00 0.00 0.00 99 1010.0
20200929041630 67 22 1.0 3.0 0.00 0.00 0.00 99 1010.0
20200929041132 67 78 0.0 5.0 0.00 0.00 0.00 99 1010.0
20200929040629 67 202 1.0 5.0 0.00 0.00 0.00 99 1011.0
20200929040129 66 1.0 2.0 0.00 0.00 0.00 99 1011.0
20200929035632 66 0.0 2.0 0.00 0.00 0.00 99 1011.0
20200929035129 66 22 0.0 2.0 0.00 0.00 0.00 99 1011.0
20200929034630 66 1.0 3.0 0.00 0.00 0.00 85 1011.0
20200929034130 66 1.0 3.0 0.00 0.00 0.00 99 1011.0
20200929033630 66 0.0 2.0 0.00 0.00 0.00 99 1010.0
20200929033129 66 90 0.0 1.0 0.00 0.00 0.00 99 1010.0
20200929032629 66 202 0.0 1.0 0.00 0.00 0.00 99 1010.0
20200929032130 66 0.0 1.0 0.00 0.00 0.00 99 1010.0
20200929031629 66 270 0.0 1.0 0.00 0.00 0.00 99 1010.0
20200929031129 66 0.0 3.0 0.00 0.00 0.00 99 1010.0
20200929030629 66 0.0 4.0 0.00 0.00 0.00 99 1000.0
20200929030129 67 1.0 4.0 0.00 0.00 0.00 99 1010.0
20200929025631 67 1.0 4.0 0.00 0.00 0.00 99 1010.0
20200929025131 67 2.0 5.0 0.00 0.00 0.00 99
20200929024629 67 2.0 5.0 0.00 0.00 0.00 99 1010.0
20200929024129 67 157 2.0 4.0 0.00 0.00 0.00 99 1010.0
20200929023629 67 90 1.0 5.0 0.00 0.00 0.00 99 1010.0
20200929023129 67 1.0 5.0 0.00 0.00 0.00 82 1010.0
20200929022631 68 1.0 2.0 0.00 0.00 0.00 1010.0
20200929022129 68 1.0 3.0 0.00 0.00 0.00 99 1010.0
20200929021629 68 1.0 3.0 0.00 0.00 0.00 99
20200929021129 68 1.0 5.0 0.00 0.00 0.00 99 1010.0
20200929020630 68 45 1.0 5.0 0.00 0.00 0.00 99 998.0
20200929020131 68 1.0 2.0 0.00 0.00 0.00 99 1010.0
20200929015631 68 202 1.0 3.0 0.00 0.00 0.00 99 980.0
20200929015129 69 1.0 3.0 0.00 0.00 0.00 99 1010.0
20200929014636 69 0 1.0 3.0 0.00 0.00 0.00 99 1010.0
20200929014129 69 90 1.0 2.0 0.00 0.00 0.00 99 1010.0
20200929013631 69 157 1.0 3.0 0.00 0.00 0.00 99 1010.0
20200929013132 69 45 1.0 3.0 0.00 0.00 0.00 99 1010.0
20200929012632 69 1.0 2.0 0.00 0.00 0.00 99 1010.0
20200929012129 70 180 1.0 3.0 0.00 0.00 0.00 99 1010.0
20200929011629 70 1.0 3.0 0.00 0.00 0.00 99 1010.0
20200929011131 70 1.0 3.0 0.00 0.00 0.00 1010.0
20200929010629 70 1.0 3.0 0.00 0.00 0.00 99 1010.0
20200929010131 70 157 1.0 6.0 0.00 0.00 0.00 1010.0
20200929005631 70 2.0 6.0 0.00 0.00 0.00 99 1010.0
20200929005129 70 1.0 3.0 0.00 0.00 0.00 99 1010.0
20200929004629 69 191 1.0 3.0 0.00 0.00 0.00 99 1010.0
20200929004129 69 0.0 3.0 0.00 0.00 0.00 1010.0
20200929003629 69 1.0 3.0 0.00 0.00 0.00 99 1010.0
20200929003130 69 0.0 2.0 0.00 0.00 0.00 1010.0
20200929002629 69 0.0 2.0 0.00 0.00 0.00 99 1010.0
20200929002129 69 22 0.0 2.0 0.00 0.00 0.00 99 1010.0
20200929001633 69 45 1.0 2.0 0.00 0.00 0.00 1010.0
20200929001129 68 315 0.0 2.0 0.00 0.00 0.00 99 1010.0
20200929000630 68 247 0.0 2.0 0.00 0.00 0.00 99 1010.0
20200929000134 68 315 1.0 2.0 0.00 0.00 0.00 91 1010.0
20200928235631 68 157 0.0 2.0 0.00 0.00 0.00 99 1010.0
20200928235129 68 0.0 2.0 0.00 0.00 0.00 99 973.0
20200928234629 69 56 0.0 2.0 0.00 0.00 0.00 99 1010.0
20200928234129 68 0 0.0 3.0 0.00 0.00 0.00 99 1010.0
20200928233629 68 0.0 3.0 0.00 0.00 0.00 99 1010.0
20200928233130 68 0.0 1.0 0.00 0.00 0.00 99 1010.0
20200928232629 68 225 0.0 1.0 0.00 0.00 0.00 99 1010.0
20200928232129 69 0.0 1.0 0.00 0.00 0.00 1010.0
20200928231630 69 90 0.0 1.0 0.00 0.00 0.00 99 1010.0
20200928231130 69 0.0 1.0 0.00 0.00 0.00 99 1010.0
20200928230634 70 0.0 1.0 0.00 0.00 0.00 1010.0
20200928230136 70 157 0.0 1.0 0.00 0.00 0.00 99
20200928225632 70 0.0 1.0 0.00 0.00 0.00 99 1010.0
20200928225129 71 0.0 0.0 0.00 0.00 0.00 99 1010.0
20200928224630 71 247 0.0 1.0 0.00 0.00 0.00 99 1010.0
20200928224129 72 0.0 1.0 0.00 0.00 0.00 99 1010.0
20200928223630 72 0.0 2.0 0.00 0.00 0.00 1010.0
20200928223131 73 0.0 2.0 0.00 0.00 0.00 99 996.0
20200928222632 74 135 0.0 1.0 0.00 0.00 0.00 99 1009.0
20200928222130 74 0.0 1.0 0.00 0.00 0.00 99
20200928221629 74 0.0 1.0 0.00 0.00 0.00 99 1010.0
20200928221139 75 90 0.0 2.0 0.00 0.00 0.00 99 1010.0
20200928220635 76 0.0 2.0 0.00 0.00 0.00 1010.0
20200928220129 77 22 0.0 2.0 0.00 0.00 0.00 98 1010.0
20200928215631 79 180 0.0 2.0 0.00 0.00 0.00 67 1010.0
20200928215129 80 225 0.0 3.0 0.00 0.00 0.00 96 1010.0
20200928214632 79 22 1.0 5.0 0.00 0.00 0.00 95 1010.0
20200928214129 79 180 1.0 5.0 0.00 0.00 0.00 97 1000.0
20200928213629 82 202 1.0 3.0 0.00 0.00 0.00 93 1010.0
20200928213129 86 262 1.0 3.0 0.00 0.00 0.00 76 1010.0
20200928212629 89 157 1.0 3.0 0.00 0.00 0.00 79 1010.0
20200928212130 88 1.0 5.0 0.00 0.00 0.00 83 1010.0
20200928211631 88 1.0 6.0 0.00 0.00 0.00 1010.0
20200928211130 88 135 2.0 6.0 0.00 0.00 0.00 80 1010.0
20200928210631 89 157 2.0 6.0 0.00 0.00 0.00 87 1010.0
20200928210135 90 2.0 5.0 0.00 0.00 0.00 82 1010.0
20200928205629 89 2.0 5.0 0.00 0.00 0.00 82 1010.0
20200928205130 88 2.0 99.0 0.00 0.00 0.00 90 1010.0
20200928204629 93 36.0 99.0 0.00 0.00 0.00 72 1010.0
20200928204129 97 1.0 3.0 0.00 0.00 0.00 74 1010.0
20200928203630 97 1.0 4.0 0.00 0.00 0.00 63 1010.0
20200928203131 97 1.0 4.0 0.00 0.00 0.00 78 1776.0
20200928202629 97 2.0 3.0 0.00 0.00 0.00 72 1010.0
20200928202129 95 150 1.0 5.0 0.00 0.00 0.00 77 1010.0
20200928201629 94 270 2.0 5.0 0.00 0.00 0.00 66 1010.0
20200928201129 91 22 1.0 6.0 0.00 0.00 0.00 78 1010.0
20200928200629 86 1.0 6.0 0.00 0.00 0.00 84 1010.0
20200928200129 90 1.0 8.0 0.00 0.00 0.00 83 1010.0
20200928195628 97 240 2.0 8.0 0.00 0.00 0.00 88 1010.0
20200928195136 96 2.0 4.0 0.00 0.00 0.00 74
20200928194632 94 300 2.0 4.0 0.00 0.00 0.00 83 1010.0
20200928194128 92 135 2.0 6.0 0.00 0.00 0.00 86 1786.0
20200928193629 89 168 2.0 6.0 0.00 0.00 0.00 80 1010.0
20200928193129 95 180 1.0 3.0 0.00 0.00 0.00 70 1010.0
20200928192629 96 0 1.0 4.0 0.00 0.00 0.00 77 1010.0
20200928192129 90 67 1.0 4.0 0.00 0.00 0.00
20200928191628 81 112 1.0 3.0 0.00 0.00 0.00 97 1010.0
20200928191129 79 1.0 3.0 0.00 0.00 0.00 97 1010.0
20200928190628 79 180 1.0 2.0 0.00 0.00 0.00 99 1010.0
20200928190131 79 315 1.0 2.0 0.00 0.00 0.00 90 1010.0
20200928185629 79 202 1.0 5.0 0.00 0.00 0.00 98 1010.0
20200928185130 80 172 1.0 5.0 0.00 0.00 0.00 96 2314.0
20200928184630 81 180 2.0 4.0 0.00 0.00 0.00 94 1010.0
20200928184128 81 45 1.0 4.0 0.00 0.00 0.00 95 1010.0
20200928183629 81 202 2.0 5.0 0.00 0.00 0.00 97 1010.0
20200928183130 82 225 3.0 5.0 0.00 0.00 0.00 92 1010.0
20200928182630 86 0 3.0 5.0 0.00 0.00 0.00 89
20200928182128 84 2.0 4.0 0.00 0.00 0.00 91 1010.0
20200928181628 83 90 1.0 4.0 0.00 0.00 0.00 97 1010.0
20200928181129 81 180 1.0 8.0 0.00 0.00 0.00 97 1010.0
20200928180643 81 180 2.0 8.0 0.00 0.00 0.00 98 1010.0
20200928180128 82 1.0 8.0 0.00 0.00 0.00 96 1010.0
20200928175631 83 123 2.0 8.0 0.00 0.00 0.00 94 1010.0
20200928175129 87 112 2.0 4.0 0.00 0.00 0.00 94 1010.0
20200928174628 89 2.0 4.0 0.00 0.00 0.00 82 1010.0
20200928174130 85 1.0 4.0 0.00 0.00 0.00 91 1011.0
20200928173628 83 270 1.0 4.0 0.00 0.00 0.00 95 1011.0
20200928173131 83 135 1.0 3.0 0.00 0.00 0.00 95 1011.0
20200928172628 85 270 1.0 4.0 0.00 0.00 0.00 91 1011.0
20200928172128 86 1.0 5.0 0.00 0.00 0.00 91 1011.0
20200928171628 85 202 2.0 5.0 0.00 0.00 0.00 77 1011.0
20200928171129 86 225 1.0 5.0 0.00 0.00 0.00 92 1011.0
20200928170628 89 2.0 5.0 0.00 0.00 0.00 90 1011.0
20200928170128 87 191 1.0 4.0 0.00 0.00 0.00 87 1011.0
20200928165628 84 225 1.0 3.0 0.00 0.00 0.00 90 1011.0
20200928165131 84 315 1.0 3.0 0.00 0.00 0.00 94 1011.0
20200928164629 83 157 1.0 5.0 0.00 0.00 0.00 96 1011.0
20200928164200 83 247 2.0 5.0 0.00 0.00 0.00 98 1011.0
20200928163630 83 315 1.0 5.0 0.00 0.00 0.00 96 1011.0
20200928163132 84 1.0 7.0 0.00 0.00 0.00 94 1011.0
20200928162628 90 2.0 7.0 0.00 0.00 0.00 83 1011.0
20200928162134 92 191 2.0 3.0 0.00 0.00 0.00 92 1011.0
20200928161702 88 1.0 3.0 0.00 0.00 0.00 90 1010.0
20200928161129 87 22 1.0 4.0 0.00 0.00 0.00 91 1011.0
20200928160630 89 2.0 4.0 0.00 0.00 0.00 93 1011.0
20200928160130 88 22 2.0 5.0 0.00 0.00 0.00 92 1010.0
20200928155628 91 2.0 5.0 0.00 0.00 0.00 82 1011.0
20200928155128 93 315 1.0 5.0 0.00 0.00 0.00 83 1011.0
20200928154632 93 2.0 6.0 0.00 0.00 0.00 84 1011.0
20200928154129 89 22 2.0 11.0 0.00 0.00 0.00 92 1011.0
20200928153628 87 67 3.0 11.0 0.00 0.00 0.00 95 1010.0
20200928153129 84 151 2.0 7.0 0.00 0.00 0.00 99 1010.0
20200928152629 83 33 1.0 6.0 0.00 0.00 0.00 99 1011.0
20200928152128 83 135 1.0 3.0 0.00 0.00 0.00 99 1011.0
20200928151629 82 315 1.0 2.0 0.00 0.00 0.00 99 1011.0
20200928151128 81 157 0.0 1.0 0.00 0.00 0.00 99 1010.0
20200928150628 81 90 0.0 2.0 0.00 0.00 0.00 99 1011.0
20200928150128 83 0.0 2.0 0.00 0.00 0.00 99
20200928145628 83 0 0.0 3.0 0.00 0.00 0.00 99 1011.0
20200928145128 83 135 0.0 3.0 0.00 0.00 0.00 99
20200928144632 85 1.0 3.0 0.00 0.00 0.00 1011.0
20200928144128 83 1.0 3.0 0.00 0.00 0.00 99 1011.0
20200928143628 82 1.0 3.0 0.00 0.00 0.00 99 1011.0
20200928143128 76 1.0 3.0 0.00 0.00 0.00 99 1011.0
20200928142628 74 0.0 3.0 0.00 0.00 0.00 99 1011.0
20200928142128 73 90 0.0 3.0 0.00 0.00 0.00 991.0
20200928141628 72 1.0 3.0 0.00 0.00 0.00 99 1011.0
20200928141129 72 1.0 3.0 0.00 0.00 0.00 99 1011.0
20200928140628 73 225 0.0 99.0 0.00 0.00 0.00 99 1011.0
20200928135628 72 247 1.0 4.0 0.00 0.00 0.00 99 997.0
20200928135128 71 135 1.0 4.0 0.00 0.00 0.00 90 1010.0
20200928134628 71 1.0 6.0 0.00 0.00 0.00 99 1010.0
20200928134128 71 1.0 6.0 0.00 0.00 0.00 99 1010.0
20200928133629 71 1.0 2.0 0.00 0.00 0.00 99 1010.0
20200928133129 70 157 1.0 2.0 0.00 0.00 0.00 1010.0
20200928132629 70 112 1.0 4.0 0.00 0.00 0.00 99 1010.0
20200928132128 70 213 1.0 5.0 0.00 0.00 0.00 1010.0
20200928131628 70 1.0 5.0 0.00 0.00 0.00 99 1010.0
20200928131128 70 90 1.0 2.0 0.00 0.00 0.00 99 1010.0
20200928130634 70 1.0 3.0 0.00 0.00 0.00 99 1010.0
20200928130129 70 1.0 3.0 0.00 0.00 0.00 99 1010.0
20200928125628 70 1.0 3.0 0.00 0.00 0.00 99 1010.0
20200928125129 69 180 1.0 4.0 0.00 0.00 0.00 99
20200928124628 70 1.0 4.0 0.00 0.00 0.00 99
20200928124132 70 112 0.0 2.0 0.00 0.00 0.00 99 1010.0
20200928123630 69 22 0.0 1.0 0.00 0.00 0.00 99 1010.0
20200928123129 69 0.0 4.0 0.00 0.00 0.00 1010.0
20200928122630 69 90 1.0 4.0 0.00 0.00 0.00 99 980.0
20200928122128 69 1.0 3.0 0.00 0.00 0.00 1010.0
20200928121630 69 45 1.0 3.0 0.00 0.00 0.00 99 1010.0
20200928121128 69 135 0.0 3.0 0.00 0.00 0.00 99 1010.0
20200928120629 70 191 1.0 3.0 0.00 0.00 0.00 99 1002.0
20200928120128 70 315 0.0 2.0 0.00 0.00 0.00 99 1010.0
20200928115633 69 0.0 3.0 0.00 0.00 0.00 99
20200928115128 69 112 1.0 3.0 0.00 0.00 0.00 99 1010.0
20200928114631 69 1.0 2.0 0.00 0.00 0.00 99 1010.0
20200928114130 69 1.0 2.0 0.00 0.00 0.00 1010.0
20200928113628 69 0.0 3.0 0.00 0.00 0.00 99 1010.0
20200928113128 69 0.0 3.0 0.00 0.00 0.00 99 1010.0
20200928112629 69 0.0 1.0 0.00 0.00 0.00 99 1010.0
20200928112128 69 0.0 1.0 0.00 0.00 0.00 99 1010.0
20200928111630 69 157 0.0 1.0 0.00 0.00 0.00 1010.0
20200928111130 69 270 0.0 1.0 0.00 0.00 0.00 99
20200928110628 68 22 0.0 0.0 0.00 0.00 0.00 1010.0
20200928110130 68 157 0.0 0.0 0.00 0.00 0.00 99
20200928105629 68 157 0.0 0.0 0.00 0.00 0.00 99 1010.0
20200928105128 68 303 0.0 0.0 0.00 0.00 0.00 84 979.0
20200928104628 68 255 0.0 0.0 0.00 0.00 0.00 99 1010.0
20200928104129 68 0.0 1.0 0.00 0.00 0.00 1010.0
20200928103628 68 0.0 1.0 0.00 0.00 0.00 99 1010.0
20200928103128 68 157 0.0 0.0 0.00 0.00 0.00 99 1010.0
20200928102631 68 315 0.0 1.0 0.00 0.00 0.00
20200928102128 68 0.0 1.0 0.00 0.00 0.00 3935.0
20200928101628 68 0.0 1.0 0.00 0.00 0.00 1010.0
20200928101128 68 0.0 1.0 0.00 0.00 0.00 99 1010.0
20200928100628 68 0.0 0.0 0.00 0.00 0.00 99 2174.0
20200928100130 68 157 0.0 0.0 0.00 0.00 0.00 1010.0
20200928095629 68 90 0.0 0.0 0.00 0.00 0.00
20200928095128 68 0.0 0.0 0.00 0.00 0.00 99
20200928094628 68 0.0 0.0 0.00 0.00 0.00 99 1010.0
20200928094128 68 0.0 0.0 0.00 0.00 0.00 99 1010.0
20200928093629 68 90 0.0 0.0 0.00 0.00 0.00 1010.0
20200928093130 68 0.0 0.0 0.00 0.00 0.00 99 1010.0
20200928092630 68 0.0 0.0 0.00 0.00 0.00 99 1010.0
20200928092133 68 0.0 0.0 0.00 0.00 0.00 1584.0
20200928091628 68 67 0.0 0.0 0.00 0.00 0.00
20200928091128 68 45 0.0 0.0 0.00 0.00 0.00 5687.0
20200928090633 68 0.0 0.0 0.00 0.00 0.00 99 1010.0
20200928090128 68 90 0.0 0.0 0.00 0.00 0.00 1009.0
20200928085628 68 0 0.0 0.0 0.00 0.00 0.00 99 1010.0
20200928085132 68 0 0.0 0.0 0.00 0.00 0.00 99 1010.0
20200928084630 68 0.0 0.0 0.00 0.00 0.00 99 1010.0
20200928084133 68 0 0.0 1.0 0.00 0.00 0.00 99 1010.0
20200928083628 68 0.0 1.0 0.00 0.00 0.00 99 1010.0
20200928083128 68 337 0.0 0.0 0.00 0.00 0.00 99 1010.0
20200928082628 68 270 0.0 0.0 0.00 0.00 0.00 99 1010.0
20200928082128 68 202 0.0 0.0 0.00 0.00 0.00 99 1010.0
20200928081634 68 0.0 0.0 0.00 0.00 0.00 99 1195.0
20200928081128 68 90 0.0 0.0 0.00 0.00 0.00 99 1010.0
20200928080628 68 0.0 0.0 0.00 0.00 0.00 99 1010.0
20200928080128 68 270 0.0 0.0 0.00 0.00 0.00 99 1010.0
20200928075628 68 157 0.0 0.0 0.00 0.00 0.00 99 1010.0
20200928075128 68 0.0 0.0 0.00 0.00 0.00 99 1010.0
20200928074628 68 270 0.0 1.0 0.00 0.00 0.00 99 1010.0
20200928074128 67 270 0.0 1.0 0.00 0.00 0.00 99 1010.0
20200928073628 68 225 0.0 1.0 0.00 0.00 0.00 99 1010.0
20200928073132 68 225 0.0 1.0 0.00 0.00 0.00 89 1010.0
20200928072634 67 225 0.0 1.0 0.00 0.00 0.00 99 1010.0
20200928072128 67 213 0.0 1.0 0.00 0.00 0.00 99 1011.0
20200928071635 68 0.0 1.0 0.00 0.00 0.00 1011.0
20200928071129 68 22 0.0 1.0 0.00 0.00 0.00 1011.0
20200928070627 68 0.0 1.0 0.00 0.00 0.00 1011.0
20200928070130 68 0.0 1.0 0.00 0.00 0.00 99 1011.0
20200928065628 68 0.0 1.0 0.00 0.00 0.00 99 1011.0
20200928065127 68 202 0.0 99.0 0.00 0.00 0.00 99 1011.0
20200928064628 68 0 99.0 99.0 0.00 0.00 0.00 99 1011.0
20200928064127 68 0.0 1.0 0.00 0.00 0.00 99
20200928063628 68 0.0 1.0 0.00 0.00 0.00 99 987.0
20200928063128 68 0.0 1.0 0.00 0.00 0.00 99 1010.0
20200928062636 68 0.0 1.0 0.00 0.00 0.00 99 2185.0
20200928062129 68 0.0 0.0 0.00 0.00 0.00 99 1011.0
20200928061629 68 0 0.0 0.0 0.00 0.00 0.00 99 1011.0
20200928061129 68 0 0.0 2.0 0.00 0.00 0.00 99 2169.0
20200928060629 68 0.0 2.0 0.00 0.00 0.00 99 1011.0
20200928060128 68 135 0.0 99.0 0.00 0.00 0.00 99 1011.0
20200928055128 69 225 0.0 1.0 0.00 0.00 0.00 99 1011.0
20200928054628 69 292 1.0 1.0 0.00 0.00 0.00 99 1011.0
20200928054128 69 1.0 2.0 0.00 0.00 0.00 1011.0
20200928053629 69 0.0 2.0 0.00 0.00 0.00
20200928053129 69 1.0 2.0 0.00 0.00 0.00 1012.0
20200928052628 69 315 0.0 1.0 0.00 0.00 0.00 99 1011.0
20200928052128 69 0.0 99.0 0.00 0.00 0.00 4533.0
20200928051628 69 225 299.0 99.0 0.00 0.00 0.00 99
20200928051127 69 0.0 1.0 0.00 0.00 0.00 99 1011.0
20200928050627 69 0.0 0.0 0.00 0.00 0.00 99 1011.0
20200928050129 69 0.0 1.0 0.00 0.00 0.00 99 1011.0
20200928045630 69 0 0.0 1.0 0.00 0.00 0.00 99 1011.0
20200928045127 69 315 0.0 1.0 0.00 0.00 0.00 99 1011.0